BIEG

Egilsstaðir Airport

Egilsstaðir, Iceland
Issued Wind Visibility Ceiling Temperature Dew Point Humidity Barometer
Sep-25
07:00 UTC
150°
4 KTS
10,000+ meters   C
46° F
C
37° F
71% 30" Hg
1016 hPa
VFR
Sep-25
06:00 UTC
Varies @3 KTS 10,000+ meters   C
43° F
C
37° F
81% 30" Hg
1016 hPa
VFR
Sep-25
05:00 UTC
Varies @3 KTS 10,000+ meters   C
43° F
C
39° F
87% 29.97" Hg
1015 hPa
VFR
Sep-25
04:00 UTC
190°
5 KTS
10,000+ meters   C
43° F
C
37° F
81% 29.94" Hg
1014 hPa
VFR
Sep-25
03:00 UTC
170°
5 KTS
10,000+ meters Broken
15,000' AGL
C
43° F
C
37° F
81% 29.91" Hg
1013 hPa
VFR
Sep-25
02:00 UTC
180°
7 KTS
10,000+ meters Broken
15,000' AGL
C
48° F
C
39° F
71% 29.88" Hg
1012 hPa
VFR
Sep-25
01:00 UTC
210°
7 KTS
10,000+ meters Broken
15,000' AGL
10° C
50° F
C
39° F
67% 29.85" Hg
1011 hPa
VFR
Sep-25
00:00 UTC
170°
10 KTS
10,000+ meters   C
48° F
C
37° F
66% 29.82" Hg
1010 hPa
VFR
Sep-24
23:00 UTC
200°
8 KTS
10,000+ meters   C
48° F
C
39° F
71% 29.79" Hg
1009 hPa
VFR
Sep-24
22:00 UTC
190°
12 KTS
10,000+ meters Broken
12,000' AGL
C
48° F
C
39° F
71% 29.73" Hg
1007 hPa
VFR
Sep-24
21:00 UTC
200°
13 KTS
10,000+ meters Broken
12,000' AGL
C
48° F
C
41° F
76% 29.68" Hg
1005 hPa
VFR
Sep-24
20:00 UTC
220°
15 KTS
10,000+ meters Broken
12,000' AGL
11° C
52° F
C
41° F
67% 29.65" Hg
1004 hPa
VFR
Sep-24
19:00 UTC
210°
15 KTS
10,000+ meters Broken
24,000' AGL
12° C
54° F
C
45° F
72% 29.59" Hg
1002 hPa
VFR
Sep-24
18:21 UTC
170°
17 KTS
10,000+ meters Broken
6,300' AGL
13° C
55° F
C
46° F
72% 29.5" Hg
999 hPa
VFR
Sep-24
17:00 UTC
170°
21 KTS
Gust 31 KTS
10,000+ meters Broken
8,100' AGL
14° C
57° F
C
48° F
72% 29.47" Hg
998 hPa
VFR
Sep-24
16:00 UTC
170°
18 KTS
Gust 31 KTS
10,000+ meters Broken
7,000' AGL
14° C
57° F
C
46° F
67% 29.41" Hg
996 hPa
VFR
Sep-24
15:00 UTC
160°
19 KTS
Gust 33 KTS
10,000+ meters Broken
7,000' AGL
15° C
59° F
C
46° F
63% 29.35" Hg
994 hPa
VFR
Sep-24
14:00 UTC
180°
20 KTS
Gust 34 KTS
10,000+ meters Broken
7,200' AGL
15° C
59° F
C
46° F
63% 29.32" Hg
993 hPa
VFR
Sep-24
13:00 UTC
180°
21 KTS
Gust 31 KTS
10,000+ meters   15° C
59° F
C
46° F
63% 29.32" Hg
993 hPa
VFR
Sep-24
12:00 UTC
180°
22 KTS
Gust 33 KTS
10,000+ meters Broken
4,400' AGL
14° C
57° F
C
46° F
67% 29.35" Hg
994 hPa
VFR
Sep-24
11:00 UTC
170°
24 KTS
Gust 37 KTS
10,000+ meters Broken
3,900' AGL
14° C
57° F
C
46° F
67% 29.32" Hg
993 hPa
VFR
Sep-24
10:00 UTC
150°
25 KTS
Gust 41 KTS
10,000+ meters Broken
4,000' AGL
13° C
55° F
C
45° F
67% 29.32" Hg
993 hPa
VFR
Sep-24
09:00 UTC
180°
11 KTS
Gust 21 KTS
10,000+ meters Broken
4,000' AGL
14° C
57° F
C
43° F
59% 29.35" Hg
994 hPa
VFR
Sep-24
08:00 UTC
170°
19 KTS
Gust 32 KTS
10,000+ meters   13° C
55° F
C
46° F
72% 29.32" Hg
993 hPa
VFR